Flag for Canada Weather past 2 weeks in Fredericton, New Brunswick, Canada

Now
41 °F

Mostly cloudy.


Feels Like: 33 °F
Forecast: 27 / 41 °F
Wind: 15 mph from Northwest

Location: Fredericton

Current Time: Mar 31, 2015 at 2:12:40 PM

Latest Report: Mar 31, 2015 at 1:00 PM


Visibility: 9 mi

Pressure: 29.52 "Hg

Humidity: 66%

Dew point: 30 °F

Location of FrederictonLocation

Historic Weather in Fredericton — Graph

°F

Fredericton temperature yesterday

Maximum temperature yesterday: 39 °F (at 12:00 PM)
Minimum temperature yesterday: 18 °F (at 7:00 AM)
Average temperature yesterday: 30 °F

Past Weeks' High & Low Weather Summary

 TemperatureHumidityPressure
High50 °F (Mar 26, 5:00 PM)100% (Mar 17, 7:00 PM)30.35 "Hg (Mar 17, 7:00 PM)
Low3 °F (Mar 17, 5:00 AM)22% (Mar 29, 4:00 PM)29.26 "Hg (Mar 18, 1:47 AM)
Average26 °F66%29.82 "Hg
* Reported Mar 16 1:00 PM — Mar 31 1:00 PM, Fredericton, Weather by CustomWeather, © 2015

Note: Actual official high and low records may vary slightly from our data, if they occured in-between our weather recording intervals... More about our weather records

Advertising

Fredericton weather history for previous 24 hours

 ConditionsComfort  
Time TempWeatherWind HumidityBarometerVisibility
1:00 PM
Tue, Mar 31
41 °FMostly cloudy.15 mph66%29.52 "Hg9 mi
12:57 PM41 °FMore clouds than sun.17 mph66%29.52 "Hg9 mi
12:02 PM39 °FBroken clouds.12 mph70%29.52 "Hg9 mi
11:00 AM37 °FMostly cloudy.7 mph81%29.52 "Hg9 mi
10:54 AM36 °FMostly cloudy.10 mph87%29.52 "Hg9 mi
10:00 AM36 °FLight rain. Overcast.6 mph87%29.52 "Hg9 mi
9:00 AM34 °FMostly cloudy.6 mph93%29.51 "Hg9 mi
8:00 AM34 °FOvercast.5 mph93%29.52 "Hg8 mi
7:00 AM34 °FOvercast.3 mph93%29.52 "Hg8 mi
6:00 AM34 °FOvercast.5 mph93%29.52 "Hg9 mi
5:00 AM34 °FOvercast.3 mph93%29.52 "Hg9 mi
4:00 AM34 °FOvercast.3 mph93%29.53 "Hg9 mi
3:04 AM34 °FOvercast.3 mph100%29.55 "Hg9 mi
2:53 AM34 °FLight rain. Overcast.3 mph100%29.56 "Hg9 mi
2:00 AM34 °FLight rain. Mostly cloudy.6 mph100%29.57 "Hg9 mi
1:59 AM34 °FLight rain. Mostly cloudy.6 mph100%29.57 "Hg9 mi
1:00 AM34 °FLight mixture of precip. Overcast.8 mph93%29.59 "Hg9 mi
12:02 AM34 °FLight mixture of precip. Mostly cloudy.10 mph93%29.61 "Hg9 mi
11:01 PM
Mon, Mar 30
34 °FLight rain. Low clouds.12 mph93%29.63 "Hg9 mi
10:00 PM34 °FLight rain. Low clouds.13 mph93%29.65 "Hg7 mi
9:00 PM34 °FLight snow. Mostly cloudy.14 mph93%29.66 "Hg3 mi
8:01 PM34 °FLight snow. Mostly cloudy.7 mph93%29.68 "Hg2 mi
7:03 PM34 °FLight rain. Fog.17 mph93%29.70 "Hg6 mi
6:03 PM37 °FLight rain. Cloudy.20 mph70%29.70 "Hg9 mi
5:00 PM37 °FMostly cloudy.18 mph65%29.72 "Hg9 mi
4:00 PM39 °FSunny.20 mph52%29.74 "Hg9 mi
3:00 PM39 °FPartly sunny.14 mph56%29.76 "Hg9 mi
2:00 PM39 °FPassing clouds.17 mph52%29.79 "Hg9 mi
Weather by CustomWeather, © 2015

See weather overviewHow to use our weather pages